Project,Study,Ord_Occ,Event_Num,Cast_ID,Date_Time_UTC,Date_Time_PST,Lat_Dec,Lon_Dec,Sta_ID,Line,Sta,Depth,Pressure,PrQ,Temp1,Temp1Q,Temp2,Temp2Q,TempAve,Salt1,Salt1Q,Salt1_Corr,Salt2,Salt2Q,Salt2_Corr,SaltAve_Corr,Ox1,Ox1Q,Ox1_CruiseCorr,Ox1_StaCorr,Ox2,Ox2Q,Ox2_CruiseCorr,Ox2_StaCorr,OxAve_StaCorr,Ox1uM,Ox1uM_CruiseCorr,Ox1uM_StaCorr,Ox2uM,Ox2uM_CruiseCorr,Ox2uM_StaCorr,OxAveuM_StaCorr,FluorV,FluorQ,EstChl_CruiseCorr,EstChl_StaCorr,ISUSV,ISUSQ,EstNO3_CruiseCorr,EstNO3_StaCorr,SigThetaTS1,SigThetaTS1Q,SigThetaTS2,SigThetaTS2Q,BAT,XMiss,TransQ,pH,pHQ,SPAR,SPARQ,PAR,PARQ,PoT1,PoT2,DynHt,SVA,OxSat1,OxSat2,BTL_Depth,BTL_Temp,SaltB,OxB,OxBuM,Chl-a,Phaeo,NO3,NO2,NH4,PO4,SIL
CalCOFI,2007SR,065,67,2007_065d,26-Jul-2020 04:24:28,25-Jul-2020 20:24:28,34.72062,-121.54832,076.7 060.0,076.7,060.0,2.000,2.014,,16.2791,,16.2764,,16.2778,33.7124,,33.7126,33.7127,,33.7143,33.7135,6.0943,,6.3502,6.2686,4.6343,,7.1223,5.1207,5.6947,265.614,276.7864,274.4324,201.982,484.1091,213.6184,244.0254,0.3345,,3.5300,3.5889,-99.0,,-99.0,-99.0,24.6938,,24.6946,,1.2241,73.6366,,8.237,,1.9043E+00,,5.7459E-01,,16.2788,16.2761,0.0028,,108.927,82.828,2,16.273,33.7177,6.313,275.60,3.626,0.268,0.0,0.00,0.14,0.12,2.15
CalCOFI,2007SR,065,67,2007_065d,26-Jul-2020 04:24:36,25-Jul-2020 20:24:36,34.72062,-121.54832,076.7 060.0,076.7,060.0,3.000,3.022,,16.2843,,16.2848,,16.2846,33.7126,,33.7128,33.7133,,33.7149,33.7139,6.0945,,6.3504,6.2688,4.6365,,7.1275,5.1256,5.6972,265.622,276.7947,274.4406,202.075,484.1287,213.8059,244.1233,0.2911,,3.0132,3.2109,-99.0,,-99.0,-99.0,24.6928,,24.6932,,1.2233,73.6512,,8.240,,1.9043E+00,,5.0169E-01,,16.2838,16.2843,0.0069,,108.941,82.880,,,,,,,,,,,,
CalCOFI,2007SR,065,67,2007_065d,26-Jul-2020 04:24:38,25-Jul-2020 20:24:38,34.72062,-121.54832,076.7 060.0,076.7,060.0,4.000,4.029,,16.2817,,16.2824,,16.2821,33.7127,,33.7129,33.7132,,33.7148,33.7139,6.0908,,6.3466,6.2650,4.6382,,7.1316,5.1294,5.6972,265.458,276.6235,274.2720,202.150,483.7276,213.9571,244.1146,0.2877,,2.9728,3.1794,-99.0,,-99.0,-99.0,24.6934,,24.6937,,1.2267,73.5883,,8.243,,1.9043E+00,,4.7380E-01,,16.2811,16.2818,0.0101,,108.869,82.907,,,,,,,,,,,,
CalCOFI,2007SR,065,67,2007_065d,26-Jul-2020 04:24:41,25-Jul-2020 20:24:41,34.72062,-121.54832,076.7 060.0,076.7,060.0,5.000,5.036,,16.2702,,16.2698,,16.2700,33.7107,,33.7109,33.7123,,33.7139,33.7124,6.0955,,6.3515,6.2698,4.6443,,7.1461,5.1430,5.7064,265.665,276.8396,274.4848,202.414,484.2339,214.4893,244.4871,0.2863,,2.9561,3.1664,-99.0,,-99.0,-99.0,24.6946,,24.6959,,1.2288,73.5509,,8.243,,1.9043E+00,,4.4412E-01,,16.2694,16.2690,0.0134,,108.928,82.994,,,,,,,,,,,,
CalCOFI,2007SR,065,67,2007_065d,26-Jul-2020 04:24:43,25-Jul-2020 20:24:43,34.72062,-121.54832,076.7 060.0,076.7,060.0,6.000,6.044,,16.1543,,16.1669,,16.1606,33.7033,,33.7035,33.7061,,33.7077,33.7056,6.1258,,6.3831,6.3009,4.6563,,7.1748,5.1697,5.7353,266.978,278.2102,275.8350,202.934,487.4453,215.5377,245.6864,0.3253,,3.4203,3.5124,-99.0,,-99.0,-99.0,24.7155,,24.7147,,1.2240,73.6395,,8.244,,1.9043E+00,,4.2346E-01,,16.1533,16.1659,0.0166,,109.216,83.039,,,,,,,,,,,,
CalCOFI,2007SR,065,67,2007_065d,26-Jul-2020 04:24:44,25-Jul-2020 20:24:44,34.72062,-121.54832,076.7 060.0,076.7,060.0,7.000,7.051,,16.0428,,16.0543,,16.0486,33.7018,,33.7020,33.7056,,33.7072,33.7046,6.1208,,6.3779,6.2958,4.6686,,7.2041,5.1971,5.7465,266.754,277.9764,275.6047,203.466,486.8974,216.6102,246.1075,0.3209,,3.3679,3.4752,-99.0,,-99.0,-99.0,24.7397,,24.7400,,1.2269,73.5848,,8.244,,1.9043E+00,,4.0565E-01,,16.0417,16.0532,0.0199,,108.889,83.075,,,,,,,,,,,,
CalCOFI,2007SR,065,67,2007_065d,26-Jul-2020 04:24:47,25-Jul-2020 20:24:47,34.72062,-121.54832,076.7 060.0,076.7,060.0,8.000,8.058,,15.9823,,15.9822,,15.9823,33.6995,,33.6997,33.7073,,33.7089,33.7043,6.1199,,6.3770,6.2949,4.6828,,7.2380,5.2287,5.7618,266.711,277.9315,275.5605,204.080,486.7922,217.8481,246.7043,0.3319,,3.4990,3.5675,-99.0,,-99.0,-99.0,24.7517,,24.7577,,1.2315,73.5014,,8.240,,1.9043E+00,,3.9388E-01,,15.9811,15.9810,0.0231,,108.742,83.210,,,,,,,,,,,,
CalCOFI,2007SR,065,67,2007_065d,26-Jul-2020 04:24:49,25-Jul-2020 20:24:49,34.72062,-121.54832,076.7 060.0,076.7,060.0,9.000,9.065,,15.6732,,15.6571,,15.6652,33.6870,,33.6872,33.6736,,33.6752,33.6812,6.1713,,6.4307,6.3475,4.7132,,7.3106,5.2964,5.8220,268.939,280.2573,277.8516,205.395,492.2416,220.4992,249.1754,0.4045,,4.3659,4.1065,-99.0,,-99.0,-99.0,24.8116,,24.8049,,1.2429,73.2917,,8.237,,1.9043E+00,,3.6446E-01,,15.6718,15.6557,0.0263,,108.984,83.200,,,,,,,,,,,,
CalCOFI,2007SR,065,67,2007_065d,26-Jul-2020 04:24:51,25-Jul-2020 20:24:51,34.72062,-121.54832,076.7 060.0,076.7,060.0,10.000,10.073,,15.5857,,15.5891,,15.5874,33.6936,,33.6938,33.6939,,33.6955,33.6947,6.1781,,6.4378,6.3545,4.7218,,7.3312,5.3155,5.8350,269.229,280.5601,278.1498,205.767,492.9509,221.2492,249.6995,0.4340,,4.7191,4.2905,-99.0,,-99.0,-99.0,24.8363,,24.8358,,1.2409,73.3292,,8.232,,1.9043E+00,,3.6188E-01,,15.5842,15.5875,0.0294,,108.921,83.251,,,,,,,,,,,,
CalCOFI,2007SR,065,67,2007_065d,26-Jul-2020 04:24:52,25-Jul-2020 20:24:52,34.72062,-121.54832,076.7 060.0,076.7,060.0,11.000,11.080,,15.5579,,15.5625,,15.5602,33.6944,,33.6946,33.6933,,33.6949,33.6948,6.1772,,6.4369,6.3536,4.7239,,7.3362,5.3202,5.8369,269.187,280.5162,278.1066,205.857,492.8482,221.4306,249.7686,0.4165,,4.5095,4.1837,-99.0,,-99.0,-99.0,24.8431,,24.8413,,1.2234,73.6510,,8.232,,1.9043E+00,,3.5647E-01,,15.5562,15.5608,0.0325,,108.845,83.244,11,15.488,33.6805,6.429,280.67,4.299,0.441,0.07,0.00,0.33,0.10,2.08
CalCOFI,2007SR,065,67,2007_065d,26-Jul-2020 04:24:55,25-Jul-2020 20:24:55,34.72062,-121.54832,076.7 060.0,076.7,060.0,12.000,12.087,,15.5362,,15.5291,,15.5327,33.6957,,33.6959,33.6982,,33.6998,33.6979,6.1484,,6.4068,6.3241,4.7306,,7.3522,5.3351,5.8296,267.930,279.2040,276.8140,206.147,489.7737,222.0153,249.4147,0.4035,,4.3539,4.0999,-99.0,,-99.0,-99.0,24.8489,,24.8525,,1.1973,74.1335,,8.228,,1.9043E+00,,3.4417E-01,,15.5344,15.5273,0.0357,,108.292,83.310,,,,,,,,,,,,
CalCOFI,2007SR,065,67,2007_065d,26-Jul-2020 04:24:57,25-Jul-2020 20:24:57,34.72062,-121.54832,076.7 060.0,076.7,060.0,13.000,13.095,,15.5008,,15.5017,,15.5013,33.6944,,33.6946,33.6946,,33.6962,33.6954,6.1136,,6.3704,6.2884,4.7341,,7.3605,5.3429,5.8157,266.412,277.6194,275.2530,206.298,486.0609,222.3197,248.7864,0.3897,,4.1889,4.0065,-99.0,,-99.0,-99.0,24.8558,,24.8558,,1.1894,74.2785,,8.226,,1.9043E+00,,3.2386E-01,,15.4988,15.4997,0.0388,,107.603,83.325,,,,,,,,,,,,
CalCOFI,2007SR,065,67,2007_065d,26-Jul-2020 04:24:59,25-Jul-2020 20:24:59,34.72062,-121.54832,076.7 060.0,076.7,060.0,14.000,14.102,,15.4766,,15.4786,,15.4776,33.6932,,33.6934,33.6933,,33.6949,33.6942,6.0772,,6.3324,6.2511,4.7371,,7.3677,5.3496,5.8004,264.825,275.9627,273.6210,206.428,482.1793,222.5818,248.1014,0.4229,,4.5861,4.2236,-99.0,,-99.0,-99.0,24.8604,,24.8600,,1.1745,74.5561,,8.224,,1.9043E+00,,3.0947E-01,,15.4745,15.4765,0.0419,,106.911,83.339,,,,,,,,,,,,
CalCOFI,2007SR,065,67,2007_065d,26-Jul-2020 04:25:01,25-Jul-2020 20:25:01,34.72062,-121.54832,076.7 060.0,076.7,060.0,15.000,15.109,,15.4475,,15.4527,,15.4501,33.6882,,33.6884,33.6875,,33.6891,33.6888,5.9971,,6.2487,6.1690,4.7427,,7.3810,5.3621,5.7656,261.334,272.3185,270.0312,206.670,473.6409,223.0697,246.5505,0.4210,,4.5634,4.2119,-99.0,,-99.0,-99.0,24.8630,,24.8613,,1.1629,74.7717,,8.221,,1.9043E+00,,2.9461E-01,,15.4452,15.4504,0.0450,,105.438,83.391,,,,,,,,,,,,
CalCOFI,2007SR,065,67,2007_065d,26-Jul-2020 04:25:03,25-Jul-2020 20:25:03,34.72062,-121.54832,076.7 060.0,076.7,060.0,16.000,16.117,,15.3937,,15.3955,,15.3946,33.6795,,33.6797,33.6809,,33.6825,33.6811,5.6598,,5.8962,5.8233,4.7666,,7.4381,5.4153,5.6193,246.632,256.9710,254.9128,207.710,437.6819,225.1664,240.0396,0.4444,,4.8437,4.3505,-99.0,,-99.0,-99.0,24.8682,,24.8689,,1.1462,75.0845,,8.214,,1.9043E+00,,2.7936E-01,,15.3913,15.3931,0.0481,,99.396,83.713,,,,,,,,,,,,
CalCOFI,2007SR,065,67,2007_065d,26-Jul-2020 04:25:05,25-Jul-2020 20:25:05,34.72062,-121.54832,076.7 060.0,076.7,060.0,17.000,17.124,,14.9830,,15.0271,,15.0051,33.6033,,33.6035,33.5584,,33.5600,33.5818,5.5418,,5.7729,5.7024,4.8011,,7.5205,5.4921,5.5973,241.485,251.5981,249.6200,209.217,425.0930,228.2046,238.9123,0.3721,,3.9786,3.8811,-99.0,,-99.0,-99.0,24.8992,,24.8551,,1.0070,77.7506,,8.190,,1.9043E+00,,2.5080E-01,,14.9805,15.0246,0.0512,,96.485,83.640,,,,,,,,,,,,
CalCOFI,2007SR,065,67,2007_065d,26-Jul-2020 04:25:07,25-Jul-2020 20:25:07,34.72062,-121.54832,076.7 060.0,076.7,060.0,18.000,18.131,,14.5425,,14.5696,,14.5561,33.5772,,33.5774,33.5706,,33.5722,33.5748,5.5845,,5.8175,5.7462,4.8300,,7.5895,5.5564,5.6513,243.325,253.5189,251.5121,210.456,429.5934,230.7025,241.1073,0.3309,,3.4871,3.5592,-99.0,,-99.0,-99.0,24.9741,,24.9632,,0.9593,78.6771,,8.173,,1.9043E+00,,2.3247E-01,,14.5398,14.5669,0.0542,,96.361,83.385,,,,,,,,,,,,
CalCOFI,2007SR,065,67,2007_065d,26-Jul-2020 04:25:09,25-Jul-2020 20:25:09,34.72062,-121.54832,076.7 060.0,076.7,060.0,19.000,19.139,,14.4879,,14.4912,,14.4896,33.5774,,33.5776,33.5872,,33.5888,33.5832,5.5515,,5.7831,5.7123,4.8164,,7.5570,5.5261,5.6192,241.885,252.0157,250.0313,209.855,426.0714,229.4908,239.7611,0.3378,,3.5693,3.6159,-99.0,,-99.0,-99.0,24.9859,,24.9928,,0.9490,78.8798,,8.159,,1.9043E+00,,2.2480E-01,,14.4852,14.4884,0.0572,,95.687,83.027,,,,,,,,,,,,
CalCOFI,2007SR,065,67,2007_065d,26-Jul-2020 04:25:11,25-Jul-2020 20:25:11,34.72062,-121.54832,076.7 060.0,076.7,060.0,20.000,20.146,,14.4432,,14.4491,,14.4462,33.5725,,33.5727,33.5722,,33.5738,33.5733,5.3869,,5.6111,5.5436,4.8070,,7.5346,5.5052,5.5244,234.712,244.5278,242.6551,209.445,408.5272,228.6643,235.6597,0.2948,,3.0572,3.2448,-99.0,,-99.0,-99.0,24.9916,,24.9901,,0.9262,79.3302,,8.149,,1.9043E+00,,2.1297E-01,,14.4403,14.4461,0.0602,,92.764,82.787,,,,,,,,,,,,
CalCOFI,2007SR,065,67,2007_065d,26-Jul-2020 04:25:13,25-Jul-2020 20:25:13,34.72063,-121.54832,076.7 060.0,076.7,060.0,21.000,21.153,,14.3490,,14.3677,,14.3584,33.5637,,33.5639,33.5575,,33.5591,33.5615,5.1864,,5.4016,5.3382,4.8132,,7.5494,5.5190,5.4286,225.973,235.4051,233.6686,209.716,387.1529,229.2106,231.4396,0.2821,,2.9062,3.1270,-99.0,,-99.0,-99.0,25.0048,,24.9961,,0.9022,79.8082,,8.141,,1.9043E+00,,2.0072E-01,,14.3459,14.3646,0.0632,,89.137,82.751,21,13.217,,5.247,229.07,2.687,0.339,6.38,0.184,1.84,0.74,7.07
CalCOFI,2007SR,065,67,2007_065d,26-Jul-2020 04:25:15,25-Jul-2020 20:25:15,34.72063,-121.54832,076.7 060.0,076.7,060.0,22.000,22.161,,13.9681,,14.0185,,13.9933,33.5399,,33.5401,33.5132,,33.5148,33.5275,5.0493,,5.2583,5.1977,4.8385,,7.6098,5.5754,5.3866,219.990,229.1595,227.5161,210.810,372.5193,231.4162,229.4662,0.2194,,2.1620,2.4904,-99.0,,-99.0,-99.0,25.0660,,25.0350,,0.8238,81.3906,,8.125,,1.9043E+00,,1.8892E-01,,13.9650,14.0154,0.0661,,86.105,82.578,,,,,,,,,,,,
CalCOFI,2007SR,065,67,2007_065d,26-Jul-2020 04:25:17,25-Jul-2020 20:25:17,34.72062,-121.54832,076.7 060.0,076.7,060.0,23.000,23.168,,13.5916,,13.6368,,13.6142,33.5288,,33.5290,33.5125,,33.5141,33.5216,5.0334,,5.2417,5.1814,4.8546,,7.6482,5.6112,5.3963,219.282,228.4204,226.7881,211.495,370.7876,232.7972,229.7927,0.1981,,1.9097,2.2533,-99.0,,-99.0,-99.0,25.1350,,25.1132,,0.8031,81.8106,,8.107,,1.9043E+00,,1.5993E-01,,13.5884,13.6336,0.0690,,85.170,82.212,,,,,,,,,,,,
CalCOFI,2007SR,065,67,2007_065d,26-Jul-2020 04:25:19,25-Jul-2020 20:25:19,34.72064,-121.54832,076.7 060.0,076.7,060.0,24.000,24.175,,13.1744,,13.2170,,13.1957,33.5311,,33.5313,33.5116,,33.5132,33.5223,5.0542,,5.2634,5.2027,4.8659,,7.6752,5.6364,5.4196,220.167,229.3442,227.6982,211.970,372.9522,233.7548,230.7265,0.1745,,1.6305,1.9784,-99.0,,-99.0,-99.0,25.2210,,25.1974,,0.7884,82.1108,,8.093,,1.9043E+00,,1.4499E-01,,13.1711,13.2137,0.0718,,84.795,81.697,,,,,,,,,,,,
CalCOFI,2007SR,065,67,2007_065d,26-Jul-2020 04:25:21,25-Jul-2020 20:25:21,34.72063,-121.54832,076.7 060.0,076.7,060.0,25.000,25.183,,13.0594,,13.0612,,13.0603,33.5488,,33.5490,33.5652,,33.5668,33.5579,4.9942,,5.2007,5.1412,4.8489,,7.6346,5.5985,5.3699,217.545,226.6071,225.0019,211.212,366.5392,232.2267,228.6143,0.1804,,1.7003,2.0483,-99.0,,-99.0,-99.0,25.2577,,25.2700,,0.8110,81.6531,,8.079,,1.9043E+00,,1.3057E-01,,13.0560,13.0578,0.0746,,83.599,81.178,,,,,,,,,,,,
CalCOFI,2007SR,065,67,2007_065d,26-Jul-2020 04:25:23,25-Jul-2020 20:25:23,34.72062,-121.54832,076.7 060.0,076.7,060.0,26.000,26.190,,12.9854,,13.0066,,12.9960,33.5915,,33.5917,33.5886,,33.5902,33.5910,4.9381,,5.1421,5.0837,4.8143,,7.5520,5.5215,5.3026,215.093,224.0475,222.4804,209.704,360.5420,229.1864,225.8334,0.1752,,1.6388,1.9867,-99.0,,-99.0,-99.0,25.3054,,25.2990,,0.7992,81.8900,,8.066,,1.9043E+00,,1.1244E-01,,12.9819,13.0030,0.0773,,82.556,80.521,,,,,,,,,,,,
CalCOFI,2007SR,065,67,2007_065d,26-Jul-2020 04:25:25,25-Jul-2020 20:25:25,34.72063,-121.54832,076.7 060.0,076.7,060.0,27.000,27.198,,12.9453,,12.9467,,12.9460,33.6163,,33.6165,33.6204,,33.6220,33.6193,4.9194,,5.1226,5.0645,4.7920,,7.4987,5.4718,5.2682,214.271,223.1894,221.6352,208.722,358.5315,227.2066,224.4209,0.1525,,1.3705,1.7104,-99.0,,-99.0,-99.0,25.3325,,25.3355,,0.8101,81.6709,,8.058,,1.9043E+00,,1.0595E-01,,12.9417,12.9430,0.0799,,82.188,80.064,,,,,,,,,,,,
CalCOFI,2007SR,065,67,2007_065d,26-Jul-2020 04:25:26,25-Jul-2020 20:25:26,34.72064,-121.54832,076.7 060.0,076.7,060.0,28.000,28.205,,12.9616,,12.9620,,12.9618,33.6267,,33.6269,33.6310,,33.6326,33.6298,4.9120,,5.1148,5.0569,4.7706,,7.4477,5.4242,5.2406,213.949,222.8533,221.3040,207.788,357.7439,225.3237,223.3139,0.1758,,1.6459,1.9938,-99.0,,-99.0,-99.0,25.3374,,25.3407,,0.8097,81.6743,,8.053,,1.9043E+00,,9.4531E-02,,12.9578,12.9582,0.0826,,82.098,79.737,,,,,,,,,,,,
CalCOFI,2007SR,065,67,2007_065d,26-Jul-2020 04:25:28,25-Jul-2020 20:25:28,34.72064,-121.54832,076.7 060.0,076.7,060.0,29.000,29.212,,12.9604,,12.9604,,12.9604,33.6340,,33.6342,33.6382,,33.6398,33.6370,4.9030,,5.1054,5.0477,4.7465,,7.3901,5.3705,5.2091,213.557,222.4441,220.9009,206.739,356.7851,223.2088,222.0549,0.1733,,1.6163,1.9640,-99.0,,-99.0,-99.0,25.3434,,25.3466,,0.8037,81.7973,,8.047,,1.9043E+00,,8.4926E-02,,12.9565,12.9565,0.0852,,81.949,79.335,,,,,,,,,,,,
CalCOFI,2007SR,065,67,2007_065d,26-Jul-2020 04:25:31,25-Jul-2020 20:25:31,34.72064,-121.54832,076.7 060.0,076.7,060.0,30.000,30.220,,12.9599,,12.9650,,12.9625,33.6354,,33.6356,33.6354,,33.6370,33.6363,4.8597,,5.0602,5.0033,4.7121,,7.3080,5.2939,5.1486,211.672,220.4763,218.9626,205.243,352.1747,220.1928,219.5777,0.1782,,1.6742,2.0223,-99.0,,-99.0,-99.0,25.3445,,25.3436,,0.8069,81.7318,,8.043,,1.9043E+00,,5.8469E-02,,12.9559,12.9609,0.0879,,81.226,78.767,,,,,,,,,,,,
CalCOFI,2007SR,065,67,2007_065d,26-Jul-2020 04:25:33,25-Jul-2020 20:25:33,34.72063,-121.54832,076.7 060.0,076.7,060.0,31.000,31.227,,12.9328,,12.9353,,12.9341,33.6422,,33.6424,33.6441,,33.6457,33.6441,4.8259,,5.0249,4.9687,4.6927,,7.2617,5.2507,5.1097,210.196,218.9355,217.4447,204.392,348.5646,218.4771,217.9609,0.1798,,1.6932,2.0412,-99.0,,-99.0,-99.0,25.3552,,25.3562,,0.8048,81.7741,,8.040,,1.9043E+00,,2.5495E-02,,12.9286,12.9311,0.0905,,80.618,78.398,31,12.824,33.6499,,215.94,2.303,0.352,7.89,0.205,2.16,0.88,9.90
CalCOFI,2007SR,065,67,2007_065d,26-Jul-2020 04:25:35,25-Jul-2020 20:25:35,34.72062,-121.54832,076.7 060.0,076.7,060.0,32.000,32.234,,12.8991,,12.9038,,12.9015,33.6462,,33.6464,33.6468,,33.6484,33.6474,4.8052,,5.0033,4.9475,4.6769,,7.2240,5.2156,5.0816,209.291,217.9908,216.5141,203.705,346.3511,217.0921,216.8031,0.1553,,1.4036,1.7451,-99.0,,-99.0,-99.0,25.3650,,25.3646,,0.8065,81.7411,,8.035,,1.9043E+00,,1.2519E-02,,12.8948,12.8995,0.0932,,80.218,78.085,,,,,,,,,,,,
CalCOFI,2007SR,065,67,2007_065d,26-Jul-2020 04:25:37,25-Jul-2020 20:25:37,34.72064,-121.54832,076.7 060.0,076.7,060.0,33.000,33.242,,12.8613,,12.8648,,12.8631,33.6455,,33.6457,33.6468,,33.6484,33.6471,4.7838,,4.9809,4.9256,4.6586,,7.1803,5.1748,5.0502,208.360,217.0189,215.5567,202.904,344.0740,215.4772,215.5170,0.1710,,1.5891,1.9365,-99.0,,-99.0,-99.0,25.3719,,25.3722,,0.8016,81.8406,,8.032,,1.9043E+00,,1.5598E-04,,12.8569,12.8603,0.0958,,79.799,77.716,,,,,,,,,,,,
CalCOFI,2007SR,065,67,2007_065d,26-Jul-2020 04:25:39,25-Jul-2020 20:25:39,34.72064,-121.54832,076.7 060.0,076.7,060.0,34.000,34.249,,12.8246,,12.8263,,12.8255,33.6435,,33.6437,33.6449,,33.6465,33.6451,4.7668,,4.9631,4.9081,4.6413,,7.1390,5.1363,5.0222,207.617,216.2433,214.7927,202.149,342.2567,213.9551,214.3739,0.1549,,1.3989,1.7402,-99.0,,-99.0,-99.0,25.3776,,25.3784,,0.7952,81.9728,,8.028,,1.9043E+00,,4.0709E-06,,12.8200,12.8217,0.0984,,79.454,77.365,,,,,,,,,,,,
CalCOFI,2007SR,065,67,2007_065d,26-Jul-2020 04:25:41,25-Jul-2020 20:25:41,34.72064,-121.54832,076.7 060.0,076.7,060.0,35.000,35.257,,12.7894,,12.7969,,12.7932,33.6402,,33.6404,33.6419,,33.6435,33.6420,4.7298,,4.9245,4.8702,4.6235,,7.0965,5.0967,4.9835,206.004,214.5595,213.1340,201.374,338.3116,212.3926,212.7633,0.1477,,1.3138,1.6504,-99.0,,-99.0,-99.0,25.3820,,25.3818,,0.7937,82.0017,,8.025,,1.9043E+00,,1.0000E-12,,12.7847,12.7922,0.1010,,78.778,77.020,,,,,,,,,,,,
CalCOFI,2007SR,065,67,2007_065d,26-Jul-2020 04:25:43,25-Jul-2020 20:25:43,34.72064,-121.54832,076.7 060.0,076.7,060.0,36.000,36.264,,12.7664,,12.7725,,12.7695,33.6407,,33.6409,33.6422,,33.6438,33.6424,4.6863,,4.8790,4.8256,4.6133,,7.0721,5.0739,4.9498,204.108,212.5802,211.1843,200.928,333.6742,211.4935,211.3389,0.1497,,1.3375,1.6755,-99.0,,-99.0,-99.0,25.3869,,25.3869,,0.7868,82.1431,,8.022,,1.9043E+00,,1.0000E-12,,12.7616,12.7676,0.1036,,78.016,76.811,,,,,,,,,,,,
CalCOFI,2007SR,065,67,2007_065d,26-Jul-2020 04:25:44,25-Jul-2020 20:25:44,34.72064,-121.54832,076.7 060.0,076.7,060.0,37.000,37.272,,12.7167,,12.7293,,12.7230,33.6435,,33.6437,33.6413,,33.6429,33.6433,4.6726,,4.8647,4.8116,4.6033,,7.0483,5.0517,4.9317,203.511,211.9570,210.5704,200.492,332.2140,210.6144,210.5924,0.1667,,1.5383,1.8846,-99.0,,-99.0,-99.0,25.3989,,25.3947,,0.7777,82.3311,,8.019,,1.9043E+00,,1.0000E-12,,12.7117,12.7243,0.1062,,77.710,76.576,,,,,,,,,,,,
CalCOFI,2007SR,065,67,2007_065d,26-Jul-2020 04:25:47,25-Jul-2020 20:25:47,34.72064,-121.54832,076.7 060.0,076.7,060.0,38.000,38.279,,12.6800,,12.6801,,12.6801,33.6479,,33.6481,33.6514,,33.6530,33.6506,4.6249,,4.8149,4.7627,4.5896,,7.0156,5.0212,4.8920,201.432,209.7868,208.4325,199.893,327.1291,209.4068,208.9197,0.1418,,1.2442,1.5760,-99.0,,-99.0,-99.0,25.4094,,25.4122,,0.7776,82.3323,,8.015,,1.9043E+00,,1.0000E-12,,12.6749,12.6751,0.1088,,76.861,76.276,,,,,,,,,,,,
CalCOFI,2007SR,065,67,2007_065d,26-Jul-2020 04:25:49,25-Jul-2020 20:25:49,34.72064,-121.54834,076.7 060.0,076.7,060.0,39.000,39.286,,12.6174,,12.6289,,12.6232,33.6486,,33.6488,33.6461,,33.6477,33.6483,4.5625,,4.7497,4.6988,4.5711,,6.9714,4.9800,4.8394,198.707,206.9421,205.6303,199.084,320.4641,207.7758,206.7031,0.1238,,1.0318,1.3439,-99.0,,-99.0,-99.0,25.4222,,25.4180,,0.7577,82.7424,,8.009,,1.9043E+00,,1.0000E-12,,12.6122,12.6237,0.1114,,75.724,75.884,,,,,,,,,,,,
CalCOFI,2007SR,065,67,2007_065d,26-Jul-2020 04:25:51,25-Jul-2020 20:25:51,34.72064,-121.54832,076.7 060.0,076.7,060.0,40.000,40.294,,12.5486,,12.5486,,12.5486,33.6520,,33.6522,33.6526,,33.6542,33.6532,4.5454,,4.7318,4.6812,4.5626,,6.9511,4.9611,4.8212,197.961,206.1634,204.8632,198.712,318.6395,207.0258,205.9445,0.1140,,0.9163,1.2143,-99.0,,-99.0,-99.0,25.4383,,25.4387,,0.7566,82.7653,,8.005,,1.9043E+00,,1.0000E-12,,12.5433,12.5433,0.1140,,75.335,75.621,,,,,,,,,,,,
CalCOFI,2007SR,065,67,2007_065d,26-Jul-2020 04:25:53,25-Jul-2020 20:25:53,34.72064,-121.54832,076.7 060.0,076.7,060.0,41.000,41.301,,12.4991,,12.5047,,12.5019,33.6515,,33.6517,33.6514,,33.6530,33.6524,4.5439,,4.7302,4.6797,4.5508,,6.9229,4.9348,4.8073,197.894,206.0934,204.7943,198.194,318.4756,205.9815,205.3879,0.1189,,0.9741,1.2794,-99.0,,-99.0,-99.0,25.4475,,25.4463,,0.7574,82.7506,,8.001,,1.9043E+00,,1.0000E-12,,12.4936,12.4993,0.1165,,75.232,75.355,41,12.455,33.6524,,205.04,1.460,0.652,10.03,0.221,1.91,1.00,11.42
CalCOFI,2007SR,065,67,2007_065d,26-Jul-2020 04:25:55,25-Jul-2020 20:25:55,34.72064,-121.54833,076.7 060.0,076.7,060.0,42.000,42.309,,12.4694,,12.4705,,12.4700,33.6524,,33.6526,33.6551,,33.6567,33.6547,4.5269,,4.7125,4.6623,4.5349,,6.8850,4.8994,4.7809,197.153,205.3199,204.0323,197.501,316.6633,204.5844,204.3084,0.1150,,0.9281,1.2277,-99.0,,-99.0,-99.0,25.4539,,25.4558,,0.7575,82.7481,,7.997,,1.9043E+00,,1.0000E-12,,12.4639,12.4650,0.1191,,74.905,75.040,,,,,,,,,,,,
CalCOFI,2007SR,065,67,2007_065d,26-Jul-2020 04:25:57,25-Jul-2020 20:25:57,34.72064,-121.54834,076.7 060.0,076.7,060.0,43.000,43.316,,12.4463,,12.4534,,12.4499,33.6513,,33.6515,33.6517,,33.6533,33.6524,4.5108,,4.6956,4.6458,4.5174,,6.8432,4.8604,4.7531,196.450,204.5861,203.3094,196.737,314.9438,203.0441,203.1768,0.1100,,0.8692,1.1608,-99.0,,-99.0,-99.0,25.4576,,25.4565,,0.7482,82.9406,,7.994,,1.9043E+00,,1.0000E-12,,12.4406,12.4478,0.1216,,74.602,74.722,,,,,,,,,,,,
CalCOFI,2007SR,065,67,2007_065d,26-Jul-2020 04:25:59,25-Jul-2020 20:25:59,34.72064,-121.54834,076.7 060.0,076.7,060.0,44.000,44.324,,12.4082,,12.4114,,12.4098,33.6516,,33.6518,33.6529,,33.6545,33.6532,4.4924,,4.6764,4.6269,4.5056,,6.8150,4.8342,4.7306,195.649,203.7499,202.4857,196.222,312.9847,202.0059,202.2458,0.0963,,0.7078,0.9747,-99.0,,-99.0,-99.0,25.4652,,25.4655,,0.7502,82.8992,,7.991,,1.9043E+00,,1.0000E-12,,12.4024,12.4056,0.1242,,74.239,74.463,,,,,,,,,,,,
CalCOFI,2007SR,065,67,2007_065d,26-Jul-2020 04:26:01,25-Jul-2020 20:26:01,34.72064,-121.54834,076.7 060.0,076.7,060.0,45.000,45.331,,12.3876,,12.3913,,12.3895,33.6501,,33.6503,33.6508,,33.6524,33.6514,4.4524,,4.6346,4.5859,4.4921,,6.7828,4.8041,4.6950,193.905,201.9293,200.6923,195.636,308.7191,200.8244,200.7584,0.0948,,0.6901,0.9541,-99.0,,-99.0,-99.0,25.4680,,25.4678,,0.7584,82.7309,,7.988,,1.9043E+00,,1.0000E-12,,12.3817,12.3854,0.1267,,73.546,74.208,,,,,,,,,,,,
CalCOFI,2007SR,065,67,2007_065d,26-Jul-2020 04:26:03,25-Jul-2020 20:26:03,34.72064,-121.54834,076.7 060.0,076.7,060.0,46.000,46.339,,12.3245,,12.3302,,12.3274,33.6467,,33.6469,33.6461,,33.6477,33.6473,4.4030,,4.5830,4.5353,4.4878,,6.7725,4.7945,4.6649,191.753,199.6829,198.4794,195.445,303.4556,200.4394,199.4594,0.0994,,0.7443,1.0172,-99.0,,-99.0,-99.0,25.4775,,25.4760,,0.7648,82.6005,,7.985,,1.9043E+00,,1.0000E-12,,12.3185,12.3242,0.1292,,72.633,74.040,,,,,,,,,,,,
CalCOFI,2007SR,065,67,2007_065d,26-Jul-2020 04:26:05,25-Jul-2020 20:26:05,34.72064,-121.54834,076.7 060.0,076.7,060.0,47.000,47.346,,12.2141,,12.2321,,12.2231,33.6353,,33.6355,33.6338,,33.6354,33.6355,4.2996,,4.4750,4.4293,4.4902,,6.7783,4.7999,4.6146,187.248,194.9801,193.8468,195.547,292.4370,200.6450,197.2459,0.0896,,0.6289,0.8821,-99.0,,-99.0,-99.0,25.4898,,25.4852,,0.7336,83.2445,,7.981,,1.9043E+00,,1.0000E-12,,12.2080,12.2260,0.1317,,70.760,73.922,,,,,,,,,,,,
CalCOFI,2007SR,065,67,2007_065d,26-Jul-2020 04:26:07,25-Jul-2020 20:26:07,34.72064,-121.54834,076.7 060.0,076.7,060.0,48.000,48.354,,12.0211,,12.0451,,12.0331,33.6242,,33.6244,33.6243,,33.6259,33.6252,3.9943,,4.1559,4.1165,4.5280,,6.8685,4.8840,4.5003,173.948,181.0962,180.1701,197.192,259.9071,203.9614,192.0658,0.0822,,0.5418,0.7786,-99.0,,-99.0,-99.0,25.5177,,25.5134,,0.7282,83.3569,,7.974,,1.9043E+00,,1.0000E-12,,12.0149,12.0389,0.1342,,65.468,74.249,,,,,,,,,,,,
CalCOFI,2007SR,065,67,2007_065d,26-Jul-2020 04:26:10,25-Jul-2020 20:26:10,34.72064,-121.54834,076.7 060.0,076.7,060.0,49.000,49.361,,11.1769,,11.2079,,11.1924,33.5581,,33.5583,33.5058,,33.5074,33.5329,3.8898,,4.0468,4.0094,4.5784,,6.9888,4.9962,4.5028,169.378,176.3256,175.4706,199.372,248.7296,208.3565,191.9136,0.0486,,0.1468,0.2927,-99.0,,-99.0,-99.0,25.6220,,25.5756,,0.6859,84.2430,,7.958,,1.9043E+00,,1.0000E-12,,11.1709,11.2018,0.1367,,62.595,73.702,,,,,,,,,,,,